📊 Raw Sensor Data

Showing records 40551 to 40575 of 84,966 total

ID Distance (ft) Battery V Battery A Int Temp (°F) Int Humid (%) Ext Temp (°F) Solar V RSSI SNR Time Stamp
44428 15.8 4.09 0 88 50 80 5.10 -84 8 06/24/2025 06:15 PM
44427 15.8 3.94 0 89 50 80 5.10 -80 7 06/24/2025 06:00 PM
44426 15.8 3.94 0 90 49 82 5.10 -80 7 06/24/2025 05:45 PM
44425 15.8 3.94 0 92 46 83 5.10 -80 8 06/24/2025 05:00 PM
44424 15.8 3.94 0 93 46 83 5.10 -81 7 06/24/2025 04:45 PM
44423 15.8 3.94 0 93 46 83 5.10 -85 7 06/24/2025 04:30 PM
44422 15.8 4.02 0 93 45 85 5.10 -82 7 06/24/2025 04:15 PM
44421 15.8 3.94 0 94 45 84 5.10 -82 7 06/24/2025 04:00 PM
44420 15.8 3.94 0 95 44 88 5.10 -79 8 06/24/2025 03:45 PM
44419 15.8 3.94 0 94 43 87 5.10 -82 8 06/24/2025 03:30 PM
44418 15.8 3.94 0 93 43 87 5.10 -80 7 06/24/2025 03:15 PM
44417 15.8 3.94 0 93 42 86 5.10 -83 8 06/24/2025 03:00 PM
44416 15.8 3.94 0 92 41 86 5.10 -70 8 06/24/2025 02:45 PM
44415 15.8 3.94 0 91 41 83 5.10 -68 8 06/24/2025 02:30 PM
44414 15.8 3.94 0 89 41 84 5.10 -69 8 06/24/2025 02:15 PM
44413 15.8 3.94 0 88 41 82 5.10 -68 7 06/24/2025 02:00 PM
44412 15.8 3.94 0 86 42 80 5.10 -68 7 06/24/2025 01:45 PM
44411 15.8 3.94 0 86 41 80 5.10 -69 8 06/24/2025 01:30 PM
44410 15.8 3.94 0 84 42 80 5.10 -68 8 06/24/2025 01:15 PM
44409 15.8 3.94 0 83 42 77 5.10 -68 8 06/24/2025 01:00 PM
44408 15.9 3.96 0 82 42 79 5.10 -67 8 06/24/2025 12:45 PM
44407 15.9 3.94 0 80 43 75 5.10 -68 8 06/24/2025 12:30 PM
44406 15.9 3.94 0 78 43 76 5.10 -68 7 06/24/2025 12:15 PM
44405 15.9 3.94 0 77 43 75 5.10 -68 8 06/24/2025 12:00 PM
44404 15.9 3.94 0 76 44 75 5.10 -68 7 06/24/2025 11:45 AM